Flag for Canada Weather past 2 weeks in Kuujjuaq, Quebec, Canada

Now
-4 °F

Passing clouds.


Feels Like: -20 °F
Forecast: N/A
Wind: 9 mph from North

Location: Kuujjuaq

Current Time: Mar 26, 2015 at 6:50:38 PM

Latest Report: Mar 26, 2015 at 6:00 PM


Visibility: 15 mi

Pressure: 29.81 "Hg

Humidity: 65%

Dew point: -13 °F

Location of KuujjuaqLocation

Historic Weather in Kuujjuaq — Graph

°F

Kuujjuaq temperature yesterday

Maximum temperature yesterday: 0 °F (at 2:00 PM)
Minimum temperature yesterday: -15 °F (at 11:00 PM)
Average temperature yesterday: -8 °F

Past Weeks' High & Low Weather Summary

 TemperatureHumidityPressure
High34 °F (Mar 16, 4:00 PM)92% (Mar 21, 5:00 AM)30.30 "Hg (Mar 21, 5:00 AM)
Low-24 °F (Mar 26, 6:00 AM)27% (Mar 16, 4:00 PM)29.46 "Hg (Mar 16, 5:00 PM)
Average-3 °F62%29.97 "Hg
* Reported Mar 11 6:00 PM — Mar 26 6:00 PM, Kuujjuaq, Weather by CustomWeather, © 2015

Note: Actual official high and low records may vary slightly from our data, if they occured in-between our weather recording intervals... More about our weather records

Advertising

Kuujjuaq weather history for previous 24 hours

 ConditionsComfort  
Time TempWeatherWind HumidityBarometerVisibility
6:00 PM
Thu, Mar 26
-4 °FPassing clouds.9 mph65%29.81 "Hg15 mi
5:00 PM-2 °FPassing clouds.7 mph59%29.80 "Hg15 mi
4:00 PM-2 °FPassing clouds.8 mph65%29.79 "Hg15 mi
3:00 PM-2 °FScattered clouds.9 mph65%29.79 "Hg15 mi
2:00 PM-2 °FScattered clouds.9 mph65%29.78 "Hg15 mi
1:00 PM-2 °FScattered clouds.9 mph59%29.78 "Hg15 mi
12:00 PM-4 °FPassing clouds.9 mph65%29.79 "Hg15 mi
11:00 AM-4 °FPassing clouds.6 mph59%29.80 "Hg15 mi
10:00 AM-9 °FSnow flurries. Scattered clouds.No wind64%29.81 "Hg15 mi
9:00 AM-15 °FSnow flurries. Scattered clouds.No wind69%29.82 "Hg15 mi
8:00 AM-20 °FPassing clouds.No wind75%29.82 "Hg15 mi
7:00 AM-24 °FPassing clouds.2 mph75%29.82 "Hg15 mi
6:00 AM-24 °FPassing clouds.2 mph75%29.83 "Hg15 mi
5:00 AM-22 °FPassing clouds.No wind75%29.84 "Hg15 mi
4:00 AM-22 °FClear.2 mph75%29.85 "Hg15 mi
3:00 AM-22 °FClear.3 mph75%29.87 "Hg15 mi
2:00 AM-22 °FClear.5 mph75%29.88 "Hg15 mi
1:00 AM-17 °FClear.3 mph76%29.90 "Hg15 mi
12:00 AM-15 °FClear.2 mph76%29.92 "Hg15 mi
11:00 PM
Wed, Mar 25
-15 °FClear.3 mph76%29.93 "Hg15 mi
10:00 PM-11 °FClear.2 mph70%29.93 "Hg15 mi
9:00 PM-9 °FPassing clouds.2 mph64%29.95 "Hg15 mi
8:00 PM-8 °FPassing clouds.5 mph64%29.96 "Hg15 mi
7:00 PM-6 °FPassing clouds.9 mph59%29.96 "Hg15 mi
6:00 PM-2 °FPassing clouds.8 mph54%29.96 "Hg15 mi
Weather by CustomWeather, © 2015

See weather overviewHow to use our weather pages